Flag Weather past 2 weeks in Basel, Basel-Stadt, Switzerland

Now
48 °F

Fog.


Feels Like: 46 °F
Forecast: 47 / 55 °F
Wind: 5 mph from Northwest

Location: Bale-Mulhouse

Current Time: Nov 24, 2014 at 9:37:20 PM

Latest Report: Nov 24, 2014 at 9:00 PM


Visibility: 3 mi

Pressure: 30.25 "Hg

Humidity: 95%

Dew point: 47 °F

Location of BaselLocation

Historic Weather in Basel — Graph

°F

Basel temperature yesterday

Maximum temperature yesterday: 55 °F (at 3:00 PM)
Minimum temperature yesterday: 36 °F (at 2:00 AM)
Average temperature yesterday: 45 °F

Past Weeks' High & Low Weather Summary

 TemperatureHumidityPressure
High58 °F (Nov 24, 2:00 PM)100% (Nov 20, 8:00 AM)30.30 "Hg (Nov 20, 8:00 AM)
Low33 °F (Nov 20, 2:00 AM)63% (Nov 16, 3:00 PM)29.59 "Hg (Nov 16, 3:00 PM)
Average46 °F91%29.93 "Hg
* Reported Nov 9 8:00 PM — Nov 24 8:00 PM, Basel, Weather by CustomWeather, © 2014

Note: Actual official high and low records may vary slightly from our data, if they occured in-between our weather recording intervals... More about our weather records

Advertising

Basel weather history for previous 24 hours

 ConditionsComfort  
Time TempWeatherWind HumidityBarometerVisibility
8:00 PM
Nov 24
49 °FLow clouds.8 mph93%30.24 "Hg3 mi
7:00 PM49 °FLow clouds.7 mph92%30.24 "Hg6 mi
6:00 PM50 °FLow clouds.9 mph91%30.23 "Hg6 mi
5:00 PM51 °FPassing clouds.12 mph88%30.21 "Hg7 mi
4:00 PM55 °FScattered clouds.9 mph81%30.19 "Hg12 mi
3:00 PM58 °FScattered clouds.7 mph71%30.18 "Hg16 mi
2:00 PM58 °FScattered clouds.1 mph70%30.17 "Hg16 mi
1:00 PM56 °FScattered clouds.1 mph68%30.19 "Hg16 mi
12:00 PM54 °FScattered clouds.2 mph71%30.20 "Hg16 mi
11:00 AM52 °FScattered clouds.7 mph78%30.21 "Hg16 mi
10:00 AM49 °FScattered clouds.5 mph82%30.21 "Hg12 mi
9:00 AM46 °FPartly sunny.3 mph90%30.20 "Hg11 mi
8:00 AM45 °FOvercast.7 mph90%30.19 "Hg11 mi
7:00 AM45 °FOvercast.7 mph90%30.17 "Hg11 mi
6:00 AM46 °FOvercast.6 mph88%30.16 "Hg11 mi
5:00 AM45 °FOvercast.3 mph88%30.17 "Hg12 mi
4:00 AM46 °FCool.8 mph87%30.16 "Hg13 mi
3:00 AM46 °FOvercast.9 mph87%30.16 "Hg13 mi
2:00 AM46 °FOvercast.8 mph86%30.16 "Hg14 mi
1:00 AM47 °FOvercast.7 mph84%30.16 "Hg16 mi
12:00 AM47 °FOvercast.7 mph82%30.15 "Hg11 mi
11:00 PM
Nov 23
48 °FOvercast.7 mph81%30.14 "Hg11 mi
10:00 PM48 °FOvercast.9 mph80%30.13 "Hg11 mi
9:00 PM48 °FOvercast.9 mph81%30.13 "Hg11 mi
Weather by CustomWeather, © 2014

See weather overviewHow to use our weather pages